Погода в Боровом

Россия / Республика Карелия     64°36′45″N   32°14′10″E
темп.,
°C
ветер,
м/с
пор.,
м/с
влажн.,
%
обл.,
%
осадки,
мм/ч
давл.,
гПа
погр.,
м
28 октября, чт
чт2800:00−2св2698100 0.3 1005359
03:00−2всв3895100 0.6 1007405
06:00−3всв279495 0.0 1009239
09:00−5в279516 0.0 1012120
12:00−1юв4108418 0.0 1014578
15:000ююв51186100 0.0 1013693
18:00−1ююв61397100 2.1 1012617
21:00+1ю61496100 4.3 1010579
29 октября, пт
пт2900:00+3ю51499100 0.0 1008624
03:00+4ю41298100 0.1 1006477
06:00+4ююз41198100 0.2 1004406
09:00+4ююз31099100 0.2 1003314
12:00+5ююз39100100 0.0 1002280
15:00+7юз41399100 0.3 1001598
18:00+8зюз61494100 0.1 1001722
21:00+8зюз61393100 0.1 1002763
30 октября, сб
сб3000:00+8зюз51293100 0.0 1004647
03:00+7з31096100 0.1 1006473
06:00+7зюз3897100 0.1 1008317
09:00+6юз2797100 0.1 1009216
12:00+7ююз3896100 0.1 1010305
15:00+7юз4893100 0.1 1010470
18:00+6ююз31094100 0.0 1010567
21:00+7ююз41095100 0.0 1009420
31 октября, вс
вс3100:00+6юз41294100 0.0 1009428
03:00+6юз41292100 0.0 1008394
06:00+6юз5169229 0.0 1008621
09:00+7зюз51188100 0.0 1008752
12:00+7зюз51287100 0.0 1009737
15:00+6зюз379294 0.0 1010321
18:00+4юз2296100 0.0 101119
21:00+4ю1195100 0.0 101110
1 ноября, пн
пн100:00+4вюв2396100 0.0 101079
03:00+3юв2597100 0.0 1009109
06:00+2ююв2596100 0.0 1008106
09:00+2ююв2697100 0.0 1008158
12:00+4ю3795100 0.1 1008290
15:00+5ююз3795100 0.1 1010300
18:00+5ю2697100 0.0 1010217
21:00+5ю2396100 0.0 101172